Regional Weather Roundup
Issued by NWS

Home | Current Version | Previous Version | Text Only | Print | Product List | Glossary Off
Versions: 1 2 3 4 5 6 7 8 9 10 11 12 13 14 15 16 17 18 19 20 21 22 23 24 25 26 27 28 29 30 31 32 33 34 35 36 37 38 39 40 41 42 43 44 45 46 47 48 49 50

416
ASUS43 KLOT 280308
RWRIL

ILLINOIS REGIONAL WEATHER ROUNDUP
NATIONAL WEATHER SERVICE CHICAGO/ROMEOVILLE IL
1000 PM CDT MON MAR 27 2017

NOTE: "FAIR" INDICATES FEW OR NO CLOUDS BELOW 12,000 FEET WITH NO
SIGNIFICANT WEATHER AND/OR OBSTRUCTIONS TO VISIBILITY.

* THESE STATIONS ARE NOT UNDER NWS QUALITY CONTROL. THEY ALSO MAY NOT
  REPORT WEATHER SUCH AS PRECIPITATION OR FOG.

ILZ001-002-007-009-015-016-024-280400-
NORTHWEST ILLINOIS

CITY           SKY/WX    TMP DP  RH WIND       PRES   REMARKS
MOLINE         CLOUDY    50  45  83 N3        29.97R
STERLING*      CLOUDY    50  46  86 N5        29.97R
SAVANNA*       CLOUDY    49  45  85 N3        29.98R
$$

ILZ003-004-008-010-011-017-018-280400-
NORTH CENTRAL ILLINOIS

CITY           SKY/WX    TMP DP  RH WIND       PRES   REMARKS
ROCKFORD       CLOUDY    50  44  80 NE6       29.99R
FREEPORT*      CLOUDY    46  44  90 N3        29.99R
ROCHELLE*      CLOUDY    47  45  90 E6        29.97R
DE KALB*       CLOUDY    45  43  92 E6        29.97R
PERU*          CLOUDY    49  48  95 NE6       29.96R FOG
$$

ILZ005-006-012>014-019>023-280400-
NORTHEAST ILLINOIS

CITY           SKY/WX    TMP DP  RH WIND       PRES   REMARKS
CHICAGO-OHARE  CLOUDY    43  36  76 NE12      29.97R
CHICAGO-MIDWAY CLOUDY    44  37  76 NE9       29.97R
AURORA         CLOUDY    45  41  86 NE10      29.97R
LANSING*       CLOUDY    41  40  95 N7        29.97R
JOLIET*        CLOUDY    46  42  86 NE7       29.96R
WAUKEGAN       CLOUDY    38  37  97 NE6       29.98R WCI  33
DUPAGE AIRPORT CLOUDY    43  40  89 NE9       29.96R
KANKAKEE*      CLOUDY    43  42  95 N8        29.95S
WHEELING       CLOUDY    40  38  93 NE7       29.99R
MORRIS*        CLOUDY    46  43  88 NE6       29.95S FOG
ROMEOVILLE*    CLOUDY    44  42  93 NE10      29.96S
NORTHERLY ISL    N/A     39  37  92 N8          N/A  WCI  33
$$

LMZ740>746-280400-
SOUTHERN LAKE MICHIGAN

STATION/POSITION SKY/WX   TEMP    WIND        PRES    VSBY  WAVE
                          AIR SEA DIR/SP/G                  HT/PER
                          (F)     (DEG/KT/KT) (MB)    (MI)  (FT/S)
HARRISON CRIB              39     340/  9/ 10   N/A
BURNHAM HARBOR             39     350/  6/ 10   N/A
CALUMET HARBOR             39     350/  7/ 10 1014.6R
BURNS HARBOR               39      30/  7/  9 1015.2R
MICHIGAN CITY              38      20/ 13/ 14   N/A
$$

ILZ025>027-034>036-040-047-049-050-058-095>099-280400-
WEST-CENTRAL ILLINOIS

CITY           SKY/WX    TMP DP  RH WIND       PRES   REMARKS
QUINCY         CLOUDY    51  48  89 N7        29.96R
GALESBURG*     CLOUDY    49  47  93 N7        29.96R
MACOMB*        CLOUDY    50  49  95 N5        29.97S FOG
JACKSONVILLE*  CLOUDY    52  50  93 N8        29.94R
PITTSFIELD*    CLOUDY    53  51  92 N6        29.96R
$$

ILZ028>032-037-038-041>044-048-051>054-059>061-280400-
CENTRAL ILLINOIS

CITY           SKY/WX    TMP DP  RH WIND       PRES   REMARKS
PONTIAC        CLOUDY    49  49  99 NE10      29.95R FOG
BLOOMINGTON    CLOUDY    52  50  93 N10       29.93R
DECATUR        LGT RAIN  53  51  93 N9        29.90R
PEORIA         CLOUDY    52  49  89 N7        29.94R FOG
LACON*         CLOUDY    51  49  95 N5        29.95R
LINCOLN*       CLOUDY    53  52  97 N6        29.93R
SPRINGFIELD    CLOUDY    54  51  90 N9        29.92S
TAYLORVILLE    CLOUDY    54  52  94 N12       29.92R
$$

ILZ033-039-045-046-055>057-062-063-280400-
EAST-CENTRAL ILLINOIS

CITY           SKY/WX    TMP DP  RH WIND       PRES   REMARKS
CHAMPAIGN      LGT RAIN  55  51  86 N15       29.90R
RANTOUL*       LGT RAIN  55  53  95 N9        29.91R
MATTOON        LGT RAIN  54  54 100 N15       29.87R
PARIS*         CLOUDY    55  54  97 N7        29.87R
$$

ILZ079-100>102-280400-
SOUTHWEST ILLINOIS

CITY           SKY/WX    TMP DP  RH WIND       PRES   REMARKS
ALTON          CLOUDY    54  52  94 NW6       29.92R
BELLEVILLE     CLOUDY    56  56  99 NW8       29.90R
CAHOKIA*       PTCLDY    54  50  86 NW7       29.92R
SPARTA*        CLOUDY    55  52  91 NW5       29.92R
$$

ILZ064>066-069>071-074>076-080>082-084>086-088>090-092>094-280400-
SOUTH-CENTRAL ILLINOIS

CITY           SKY/WX    TMP DP  RH WIND       PRES   REMARKS
CARBONDALE     CLOUDY    57  53  86 W8        29.90R
CAIRO*         PTCLDY    55  55 100 CALM      29.89R
EFFINGHAM*     LGT RAIN  55  55 100 NW9       29.89R
MARION         CLOUDY    57  55  94 NW3       29.90R
MT. VERNON     CLOUDY    56  54  93 VRB5      29.87R
CENTRALIA*     DRIZZLE   56  55  98 N12       29.87S
SALEM*         DRIZZLE   56  55  93 NW14      29.88R
METROPOLIS*    FOG       51  51  99 CALM      29.89R VSB 1/4
$$

ILZ067-068-072-073-078-083-087-091-280400-
SOUTHEAST ILLINOIS

CITY           SKY/WX    TMP DP  RH WIND       PRES   REMARKS
LAWRENCEVILLE  CLOUDY    58  54  86 W8        29.84R
FLORA*         CLOUDY    57  55  92 W10G16    29.86R
FAIRFIELD*     CLOUDY    57  53  89 W3        29.85R
HARRISBURG*    CLOUDY    57  53  86 W6        29.89R
ROBINSON*      CLOUDY    56  55  97 N5        29.84R
CARMI*         MOCLDY    55  52  89 W9        29.86R
$$

ABBREVIATIONS USED IN REMARKS
   TC - TEMPERATURE IN CELSIUS
  WCI - WIND CHILL INDEX
   HX - HEAT INDEX
  VSB - VISIBILITY
$$





USA.gov is the U.S. government's official web portal to all federal, state and local government web resources and services.